AFL1504 UUEE-USTR

Flight info

Callsign AFL1504
Flight time 2h 12m
Altitude 37000
Route OLMUN3H OLMUN T629 IPSIL T830 LAMGU N604 OGSIN P983 GINPA GINPA1M
Aircraft A320/M-SDE2E3FGHIJ1RWY/LB1U1

Departure

Time 2026-04-26 05:23
Airport Sheremetyevo International Airport (UUEE)

Arrival

Time 2026-04-26 07:36
Airport Roshchino International Airport (USTR)
Time Latitude Longitude Altitude Speed Heading
2026-04-26 05:07 55.98014 37.41811 639 ft 0 kts 255°
2026-04-26 05:12 55.98015 37.41814 642 ft 2 kts 255°
2026-04-26 05:12 55.98021 37.41859 644 ft 4 kts 256°
2026-04-26 05:12 55.98028 37.41906 639 ft 4 kts 253°
2026-04-26 05:12 55.98037 37.41950 645 ft 4 kts 229°
2026-04-26 05:13 55.98050 37.41966 642 ft 0 kts 165°
2026-04-26 05:16 55.98017 37.41982 639 ft 7 kts 165°
2026-04-26 05:16 55.97987 37.41996 639 ft 2 kts 165°
2026-04-26 05:17 55.97985 37.41997 639 ft 1 kts 165°
2026-04-26 05:17 55.97945 37.42016 639 ft 10 kts 165°
2026-04-26 05:17 55.97864 37.42055 644 ft 11 kts 165°
2026-04-26 05:17 55.97798 37.42086 639 ft 9 kts 165°
2026-04-26 05:18 55.97730 37.42119 639 ft 11 kts 165°
2026-04-26 05:18 55.97697 37.42150 639 ft 7 kts 133°
2026-04-26 05:18 55.97698 37.42274 640 ft 15 kts 75°
2026-04-26 05:18 55.97725 37.42451 645 ft 12 kts 75°
2026-04-26 05:19 55.97744 37.42580 639 ft 12 kts 75°
2026-04-26 05:19 55.97765 37.42738 642 ft 9 kts 92°
2026-04-26 05:19 55.97733 37.42793 644 ft 5 kts 160°
2026-04-26 05:19 55.97691 37.42814 643 ft 7 kts 166°
2026-04-26 05:20 55.97619 37.42843 638 ft 10 kts 181°
2026-04-26 05:20 55.97601 37.42811 639 ft 0 kts 252°
2026-04-26 05:20 55.97600 37.42803 639 ft 0 kts 255°
2026-04-26 05:22 55.97598 37.42789 639 ft 7 kts 255°
2026-04-26 05:23 55.97520 37.42295 639 ft 77 kts 255°
2026-04-26 05:23 55.97335 37.41039 642 ft 132 kts 255°
2026-04-26 05:23 55.97063 37.39213 842 ft 160 kts 255°
2026-04-26 05:23 55.96782 37.37309 1463 ft 159 kts 255°
2026-04-26 05:24 55.96486 37.35430 2173 ft 157 kts 255°
2026-04-26 05:24 55.96184 37.33559 2835 ft 156 kts 256°
2026-04-26 05:24 55.95889 37.31714 3497 ft 154 kts 257°
2026-04-26 05:24 55.95594 37.29853 4049 ft 162 kts 257°
2026-04-26 05:25 55.95269 37.27791 4322 ft 183 kts 256°
2026-04-26 05:25 55.94903 37.25455 4594 ft 208 kts 256°
2026-04-26 05:25 55.94489 37.22820 4984 ft 232 kts 256°
2026-04-26 05:25 55.94035 37.19943 5641 ft 246 kts 256°
2026-04-26 05:26 55.93566 37.16993 6498 ft 249 kts 256°
2026-04-26 05:26 55.93106 37.13992 7402 ft 251 kts 261°
2026-04-26 05:26 55.93130 37.10894 8270 ft 254 kts 284°
2026-04-26 05:26 55.93933 37.08083 9159 ft 261 kts 308°
2026-04-26 05:27 55.95427 37.06180 9961 ft 273 kts 334°
2026-04-26 05:27 55.97349 37.05762 10726 ft 290 kts
2026-04-26 05:27 55.99251 37.07188 11442 ft 310 kts 31°
2026-04-26 05:27 56.01005 37.09683 11804 ft 331 kts 36°
2026-04-26 05:28 56.02753 37.12438 12454 ft 339 kts 38°
2026-04-26 05:28 56.04505 37.15309 13205 ft 344 kts 39°
2026-04-26 05:28 56.06273 37.18224 13863 ft 348 kts 39°
2026-04-26 05:28 56.07997 37.21317 14288 ft 355 kts 49°
2026-04-26 05:29 56.09206 37.25194 14407 ft 360 kts 69°
2026-04-26 05:29 56.09680 37.29586 14421 ft 361 kts 89°
2026-04-26 05:29 56.09372 37.34026 14450 ft 361 kts 109°
2026-04-26 05:29 56.08286 37.38053 15064 ft 359 kts 128°
2026-04-26 05:30 56.06598 37.41304 15746 ft 355 kts 146°
2026-04-26 05:30 56.04494 37.43505 16391 ft 352 kts 159°
2026-04-26 05:30 56.02289 37.45374 17027 ft 355 kts 159°
2026-04-26 05:30 56.00106 37.47509 17647 ft 364 kts 146°
2026-04-26 05:31 55.98340 37.50795 18173 ft 374 kts 126°
2026-04-26 05:31 55.97046 37.54863 18695 ft 379 kts 120°
2026-04-26 05:31 55.95790 37.59045 19213 ft 384 kts 120°
2026-04-26 05:31 55.94536 37.63269 19742 ft 388 kts 120°
2026-04-26 05:32 55.93272 37.67533 20255 ft 392 kts 120°
2026-04-26 05:32 55.91987 37.71854 20751 ft 396 kts 120°
2026-04-26 05:32 55.90685 37.76211 21255 ft 400 kts 120°
2026-04-26 05:32 55.89417 37.80439 21729 ft 404 kts 120°
2026-04-26 05:33 55.88079 37.84873 22221 ft 408 kts 120°
2026-04-26 05:33 55.86722 37.89340 22711 ft 412 kts 120°
2026-04-26 05:33 55.85345 37.93846 23158 ft 416 kts 120°
2026-04-26 05:33 55.83955 37.98386 23575 ft 419 kts 120°
2026-04-26 05:34 55.82556 38.02958 23992 ft 422 kts 120°
2026-04-26 05:34 55.81208 38.07617 24400 ft 426 kts 114°
2026-04-26 05:34 55.80267 38.12537 24796 ft 430 kts 104°
2026-04-26 05:34 55.79787 38.17806 25013 ft 439 kts 93°
2026-04-26 05:35 55.79811 38.23282 25143 ft 448 kts 86°
2026-04-26 05:35 55.79961 38.28863 25272 ft 457 kts 86°
2026-04-26 05:35 55.80095 38.34545 25491 ft 464 kts 86°
2026-04-26 05:35 55.80375 38.40272 25795 ft 466 kts 79°
2026-04-26 05:36 55.81095 38.45896 26121 ft 467 kts 70°
2026-04-26 05:36 55.82082 38.51407 26471 ft 469 kts 70°
2026-04-26 05:36 55.83082 38.56961 26815 ft 472 kts 70°
2026-04-26 05:36 55.84083 38.62539 27144 ft 475 kts 70°
2026-04-26 05:37 55.85089 38.68160 27460 ft 479 kts 70°
2026-04-26 05:37 55.86274 38.73697 27783 ft 479 kts 62°
2026-04-26 05:37 55.87713 38.79063 28093 ft 481 kts 61°
2026-04-26 05:37 55.89156 38.84457 28395 ft 484 kts 62°
2026-04-26 05:38 55.90601 38.89894 28683 ft 487 kts 62°
2026-04-26 05:38 55.92047 38.95363 28979 ft 490 kts 62°
2026-04-26 05:38 55.93502 39.00880 29265 ft 492 kts 62°
2026-04-26 05:38 55.94958 39.06420 29531 ft 495 kts 62°
2026-04-26 05:39 55.96427 39.12003 29757 ft 498 kts 62°
2026-04-26 05:39 55.97903 39.17601 29999 ft 500 kts 62°
2026-04-26 05:39 55.99389 39.23214 30280 ft 500 kts 62°
2026-04-26 05:39 56.00835 39.28676 30632 ft 499 kts 62°
2026-04-26 05:40 56.02315 39.34282 30978 ft 499 kts 62°
2026-04-26 05:40 56.03791 39.39892 31330 ft 498 kts 62°
2026-04-26 05:40 56.05260 39.45505 31693 ft 498 kts 62°
2026-04-26 05:40 56.06719 39.51109 32034 ft 497 kts 62°
2026-04-26 05:41 56.08304 39.56589 32370 ft 494 kts 55°
2026-04-26 05:41 56.10150 39.61742 32708 ft 492 kts 53°
2026-04-26 05:41 56.12009 39.66896 33070 ft 491 kts 53°
2026-04-26 05:41 56.13665 39.71501 33402 ft 491 kts 53°
2026-04-26 05:42 56.15543 39.76747 33695 ft 490 kts 53°
2026-04-26 05:42 56.17352 39.81820 33970 ft 490 kts 54°
2026-04-26 05:42 56.19183 39.86970 34278 ft 489 kts 54°
2026-04-26 05:42 56.21009 39.92111 34562 ft 488 kts 54°
2026-04-26 05:43 56.22831 39.97255 34828 ft 488 kts 54°
2026-04-26 05:43 56.24653 40.02402 35100 ft 487 kts 54°
2026-04-26 05:43 56.26469 40.07538 35366 ft 486 kts 54°
2026-04-26 05:43 56.28280 40.12673 35627 ft 485 kts 55°
2026-04-26 05:44 56.30083 40.17800 35879 ft 485 kts 55°
2026-04-26 05:44 56.31885 40.22937 36133 ft 484 kts 55°
2026-04-26 05:44 56.33682 40.28069 36380 ft 483 kts 55°
2026-04-26 05:44 56.35442 40.33111 36489 ft 483 kts 56°
2026-04-26 05:45 56.39049 40.43454 36503 ft 483 kts 56°
2026-04-26 05:45 56.42540 40.53517 36511 ft 482 kts 56°
2026-04-26 05:46 56.45902 40.64128 36510 ft 484 kts 66°
2026-04-26 05:46 56.47878 40.75790 36512 ft 486 kts 74°
2026-04-26 05:47 56.49651 40.87594 36527 ft 486 kts 73°
2026-04-26 05:47 56.51425 40.99310 36533 ft 486 kts 74°
2026-04-26 05:48 56.53180 41.11071 36534 ft 487 kts 74°
2026-04-26 05:48 56.54914 41.22922 36537 ft 487 kts 74°
2026-04-26 05:49 56.57508 41.40752 36545 ft 487 kts 74°
2026-04-26 05:50 56.59228 41.52651 36550 ft 488 kts 75°
2026-04-26 05:50 56.60934 41.64571 36562 ft 488 kts 75°
2026-04-26 05:51 56.62624 41.76435 36565 ft 488 kts 75°
2026-04-26 05:51 56.64316 41.88388 36570 ft 489 kts 75°
2026-04-26 05:52 56.65988 42.00365 36575 ft 489 kts 75°
2026-04-26 05:52 56.67650 42.12346 36580 ft 489 kts 75°
2026-04-26 05:53 56.69314 42.24350 36574 ft 489 kts 75°
2026-04-26 05:53 56.70964 42.36354 36582 ft 489 kts 76°
2026-04-26 05:54 56.72588 42.48371 36583 ft 489 kts 76°
2026-04-26 05:54 56.74236 42.60403 36593 ft 489 kts 74°
2026-04-26 05:55 56.76166 42.72295 36593 ft 490 kts 72°
2026-04-26 05:55 56.78212 42.84138 36600 ft 490 kts 72°
2026-04-26 05:56 56.80182 42.96025 36601 ft 490 kts 73°
2026-04-26 05:56 56.82076 43.07964 36610 ft 490 kts 73°
2026-04-26 05:57 56.83939 43.19800 36613 ft 490 kts 73°
2026-04-26 05:57 56.85830 43.31743 36615 ft 489 kts 73°
2026-04-26 05:58 56.87720 43.43710 36618 ft 489 kts 73°
2026-04-26 05:58 56.89587 43.55681 36625 ft 490 kts 74°
2026-04-26 05:59 56.91444 43.67667 36624 ft 490 kts 74°
2026-04-26 05:59 56.93285 43.79676 36633 ft 490 kts 74°
2026-04-26 06:00 56.95113 43.91702 36634 ft 490 kts 74°
2026-04-26 06:00 56.96925 44.03665 36638 ft 491 kts 74°
2026-04-26 06:01 56.98744 44.15728 36643 ft 491 kts 74°
2026-04-26 06:01 57.00548 44.27824 36654 ft 491 kts 75°
2026-04-26 06:02 57.02342 44.39936 36669 ft 492 kts 75°
2026-04-26 06:02 57.04123 44.52052 36674 ft 492 kts 75°
2026-04-26 06:03 57.05893 44.64180 36683 ft 491 kts 75°
2026-04-26 06:03 57.07651 44.76314 36690 ft 491 kts 75°
2026-04-26 06:04 57.09391 44.88453 36690 ft 491 kts 75°
2026-04-26 06:04 57.11127 45.00615 36700 ft 491 kts 75°
2026-04-26 06:05 57.12848 45.12783 36704 ft 491 kts 75°
2026-04-26 06:05 57.14561 45.24964 36704 ft 491 kts 75°
2026-04-26 06:06 57.16261 45.37162 36709 ft 491 kts 76°
2026-04-26 06:06 57.17941 45.49368 36712 ft 491 kts 76°
2026-04-26 06:07 57.19330 45.59516 36716 ft 491 kts 76°
2026-04-26 06:07 57.20997 45.71737 36724 ft 491 kts 76°
2026-04-26 06:08 57.22654 45.83976 36724 ft 491 kts 76°
2026-04-26 06:08 57.24299 45.96215 36729 ft 491 kts 76°
2026-04-26 06:09 57.25932 46.08473 36729 ft 491 kts 76°
2026-04-26 06:09 57.27547 46.20742 36730 ft 492 kts 76°
2026-04-26 06:10 57.29125 46.32818 36730 ft 492 kts 76°
2026-04-26 06:10 57.30715 46.45107 36737 ft 492 kts 76°
2026-04-26 06:11 57.32244 46.57015 36743 ft 491 kts 76°
2026-04-26 06:11 57.33797 46.69247 36746 ft 491 kts 76°
2026-04-26 06:12 57.35809 46.81320 36745 ft 490 kts 64°
2026-04-26 06:12 57.38636 46.92803 36749 ft 490 kts 64°
2026-04-26 06:13 57.41431 47.04322 36752 ft 490 kts 65°
2026-04-26 06:13 57.44213 47.15852 36756 ft 489 kts 65°
2026-04-26 06:14 57.46982 47.27402 36760 ft 489 kts 65°
2026-04-26 06:14 57.49736 47.38960 36761 ft 489 kts 65°
2026-04-26 06:15 57.52491 47.50515 36764 ft 489 kts 65°
2026-04-26 06:15 57.55220 47.62003 36769 ft 488 kts 65°
2026-04-26 06:16 57.57952 47.73585 36772 ft 488 kts 65°
2026-04-26 06:16 57.60665 47.85182 36780 ft 488 kts 65°
2026-04-26 06:17 57.63366 47.96782 36778 ft 487 kts 65°
2026-04-26 06:17 57.66060 48.08390 36789 ft 487 kts 65°
2026-04-26 06:18 57.68746 48.20014 36790 ft 487 kts 65°
2026-04-26 06:18 57.71415 48.31651 36793 ft 487 kts 66°
2026-04-26 06:19 57.74050 48.43320 36800 ft 487 kts 69°
2026-04-26 06:19 57.75551 48.55638 36797 ft 487 kts 82°
2026-04-26 06:20 57.76442 48.68190 36799 ft 487 kts 82°
2026-04-26 06:20 57.77334 48.80768 36797 ft 487 kts 82°
2026-04-26 06:21 57.78214 48.93356 36800 ft 487 kts 82°
2026-04-26 06:21 57.79078 49.05941 36808 ft 487 kts 83°
2026-04-26 06:22 57.79927 49.18551 36810 ft 487 kts 83°
2026-04-26 06:22 57.80769 49.31156 36815 ft 487 kts 83°
2026-04-26 06:23 57.81599 49.43765 36816 ft 487 kts 83°
2026-04-26 06:23 57.82418 49.56380 36816 ft 487 kts 83°
2026-04-26 06:24 57.83217 49.69009 36822 ft 487 kts 83°
2026-04-26 06:24 57.83995 49.81558 36821 ft 487 kts 83°
2026-04-26 06:25 57.84769 49.94206 36826 ft 487 kts 83°
2026-04-26 06:25 57.85529 50.06834 36822 ft 487 kts 83°
2026-04-26 06:26 57.86294 50.19465 36825 ft 487 kts 83°
2026-04-26 06:26 57.87050 50.32094 36827 ft 486 kts 83°
2026-04-26 06:27 57.87782 50.44732 36825 ft 486 kts 84°
2026-04-26 06:27 57.88495 50.57363 36824 ft 486 kts 84°
2026-04-26 06:28 57.89197 50.70002 36825 ft 486 kts 84°
2026-04-26 06:28 57.89883 50.82554 36824 ft 486 kts 84°
2026-04-26 06:29 57.90573 50.95192 36824 ft 486 kts 84°
2026-04-26 06:29 57.91244 51.07857 36826 ft 487 kts 84°
2026-04-26 06:30 57.91894 51.20522 36829 ft 486 kts 84°
2026-04-26 06:30 57.92543 51.33194 36826 ft 486 kts 84°
2026-04-26 06:31 57.93181 51.45866 36825 ft 486 kts 84°
2026-04-26 06:31 57.93491 51.52200 36676 ft 488 kts 87°
2026-04-26 06:31 57.93769 51.58536 36747 ft 484 kts 85°
2026-04-26 06:32 57.94379 51.71226 36832 ft 488 kts 84°
2026-04-26 06:32 57.95016 51.83945 36833 ft 488 kts 84°
2026-04-26 06:33 57.95622 51.96659 36836 ft 488 kts 85°
2026-04-26 06:33 57.96200 52.09384 36836 ft 487 kts 85°
2026-04-26 06:34 57.96758 52.22103 36834 ft 487 kts 85°
2026-04-26 06:34 57.97309 52.34817 36831 ft 487 kts 85°
2026-04-26 06:35 57.97847 52.47531 36826 ft 487 kts 85°
2026-04-26 06:35 57.98377 52.60251 36825 ft 486 kts 85°
2026-04-26 06:36 57.98896 52.72950 36827 ft 486 kts 85°
2026-04-26 06:36 57.99410 52.85664 36823 ft 486 kts 85°
2026-04-26 06:37 57.99901 52.98388 36829 ft 486 kts 86°
2026-04-26 06:37 58.00374 53.11108 36822 ft 486 kts 86°
2026-04-26 06:38 58.00834 53.23748 36824 ft 486 kts 86°
2026-04-26 06:38 58.01284 53.36479 36820 ft 486 kts 86°
2026-04-26 06:39 58.01726 53.49212 36816 ft 487 kts 86°
2026-04-26 06:39 58.02153 53.61959 36814 ft 486 kts 86°
2026-04-26 06:40 58.02567 53.74694 36805 ft 486 kts 86°
2026-04-26 06:40 58.02967 53.87425 36803 ft 486 kts 86°
2026-04-26 06:41 58.03345 54.00169 36799 ft 486 kts 87°
2026-04-26 06:41 58.03727 54.12898 36791 ft 486 kts 86°
2026-04-26 06:42 58.04109 54.25635 36785 ft 486 kts 87°
2026-04-26 06:42 58.04468 54.38371 36782 ft 486 kts 87°
2026-04-26 06:43 58.04813 54.51128 36779 ft 486 kts 87°
2026-04-26 06:43 58.05145 54.63869 36777 ft 487 kts 87°
2026-04-26 06:44 58.05430 54.76416 36774 ft 487 kts 91°
2026-04-26 06:44 58.04748 54.89096 36775 ft 486 kts 98°
2026-04-26 06:45 58.03844 55.01755 36775 ft 487 kts 98°
2026-04-26 06:45 58.02942 55.14414 36773 ft 487 kts 98°
2026-04-26 06:46 58.02080 55.26222 36768 ft 487 kts 98°
2026-04-26 06:46 58.01150 55.38860 36765 ft 487 kts 98°
2026-04-26 06:47 58.00222 55.51509 36760 ft 487 kts 98°
2026-04-26 06:47 57.99294 55.64063 36762 ft 487 kts 99°
2026-04-26 06:48 57.98337 55.76695 36760 ft 487 kts 99°
2026-04-26 06:48 57.97359 55.89310 36764 ft 486 kts 99°
2026-04-26 06:49 57.96382 56.01912 36760 ft 486 kts 99°
2026-04-26 06:49 57.95400 56.14511 36757 ft 486 kts 99°
2026-04-26 06:50 57.94400 56.27096 36755 ft 486 kts 99°
2026-04-26 06:50 57.93380 56.39678 36754 ft 486 kts 99°
2026-04-26 06:51 57.92355 56.52264 36752 ft 486 kts 99°
2026-04-26 06:51 57.90800 56.71127 36751 ft 486 kts 100°
2026-04-26 06:52 57.89744 56.83628 36757 ft 486 kts 100°
2026-04-26 06:52 57.88675 56.96183 36760 ft 487 kts 100°
2026-04-26 06:53 57.87592 57.08732 36762 ft 487 kts 100°
2026-04-26 06:53 57.86500 57.21279 36764 ft 487 kts 100°
2026-04-26 06:54 57.85397 57.33816 36766 ft 486 kts 100°
2026-04-26 06:54 57.84282 57.46344 36769 ft 486 kts 101°
2026-04-26 06:55 57.83150 57.58845 36775 ft 486 kts 101°
2026-04-26 06:55 57.82188 57.69322 36775 ft 486 kts 101°
2026-04-26 06:56 57.81031 57.81808 36781 ft 486 kts 101°
2026-04-26 06:56 57.79863 57.94294 36780 ft 486 kts 101°
2026-04-26 06:57 57.78682 58.06772 36787 ft 486 kts 101°
2026-04-26 06:57 57.77502 58.19246 36784 ft 486 kts 101°
2026-04-26 06:58 57.76318 58.31642 36789 ft 486 kts 101°
2026-04-26 06:58 57.75121 58.44131 36787 ft 486 kts 101°
2026-04-26 06:59 57.73911 58.56597 36784 ft 486 kts 102°
2026-04-26 06:59 57.72686 58.69050 36782 ft 486 kts 102°
2026-04-26 07:00 57.71457 58.81501 36782 ft 486 kts 102°
2026-04-26 07:00 57.70217 58.93926 36773 ft 486 kts 102°
2026-04-26 07:01 57.68957 59.06281 36776 ft 486 kts 102°
2026-04-26 07:01 57.67677 59.18691 36777 ft 486 kts 102°
2026-04-26 07:02 57.66396 59.31022 36767 ft 486 kts 102°
2026-04-26 07:02 57.65106 59.43391 36760 ft 486 kts 103°
2026-04-26 07:03 57.63796 59.55767 36760 ft 486 kts 103°
2026-04-26 07:03 57.62480 59.68119 36757 ft 485 kts 103°
2026-04-26 07:04 57.61172 59.80270 36756 ft 485 kts 103°
2026-04-26 07:04 57.59828 59.92604 36747 ft 486 kts 103°
2026-04-26 07:05 57.58473 60.04940 36744 ft 486 kts 103°
2026-04-26 07:05 57.57111 60.17269 36743 ft 486 kts 103°
2026-04-26 07:06 57.55734 60.29593 36741 ft 486 kts 104°
2026-04-26 07:06 57.54341 60.41903 36738 ft 486 kts 104°
2026-04-26 07:07 57.52924 60.54206 36738 ft 486 kts 104°
2026-04-26 07:07 57.52034 60.65498 36737 ft 489 kts 94°
2026-04-26 07:08 57.51698 60.78123 36739 ft 489 kts 94°
2026-04-26 07:08 57.51327 60.90753 36738 ft 489 kts 95°
2026-04-26 07:09 57.50936 61.03390 36737 ft 489 kts 95°
2026-04-26 07:09 57.50539 61.16025 36740 ft 490 kts 95°
2026-04-26 07:11 57.49485 61.47571 36739 ft 490 kts 95°
2026-04-26 07:11 57.49038 61.60207 36735 ft 490 kts 95°
2026-04-26 07:12 57.48579 61.72557 36734 ft 490 kts 95°
2026-04-26 07:12 57.48121 61.85177 36735 ft 490 kts 95°
2026-04-26 07:13 57.47668 61.97426 36737 ft 489 kts 96°
2026-04-26 07:13 57.47183 62.10033 36738 ft 489 kts 96°
2026-04-26 07:14 57.46676 62.22619 36735 ft 488 kts 96°
2026-04-26 07:14 57.46172 62.35204 36736 ft 488 kts 96°
2026-04-26 07:14 57.45919 62.41503 36500 ft 489 kts 96°
2026-04-26 07:15 57.45667 62.47654 35385 ft 500 kts 96°
2026-04-26 07:15 57.45396 62.54131 34461 ft 506 kts 96°
2026-04-26 07:15 57.45123 62.60582 33637 ft 509 kts 96°
2026-04-26 07:15 57.44842 62.67157 32572 ft 513 kts 96°
2026-04-26 07:16 57.44559 62.73730 31899 ft 509 kts 96°
2026-04-26 07:16 57.44278 62.80261 31187 ft 505 kts 96°
2026-04-26 07:16 57.43995 62.86713 30174 ft 497 kts 96°
2026-04-26 07:16 57.43713 62.93000 29462 ft 481 kts 96°
2026-04-26 07:17 57.43438 62.99067 28797 ft 463 kts 96°
2026-04-26 07:17 57.43167 63.04952 28177 ft 455 kts 96°
2026-04-26 07:17 57.42895 63.10782 27552 ft 452 kts 96°
2026-04-26 07:17 57.42626 63.16575 26926 ft 449 kts 96°
2026-04-26 07:18 57.42368 63.22063 26351 ft 445 kts 96°
2026-04-26 07:18 57.42098 63.27763 25752 ft 442 kts 96°
2026-04-26 07:18 57.41827 63.33410 25153 ft 438 kts 96°
2026-04-26 07:18 57.41554 63.39011 24600 ft 434 kts 97°
2026-04-26 07:19 57.41283 63.44568 24039 ft 430 kts 97°
2026-04-26 07:19 57.41013 63.50061 23510 ft 426 kts 97°
2026-04-26 07:19 57.40741 63.55504 22923 ft 421 kts 97°
2026-04-26 07:19 57.40474 63.60807 22429 ft 414 kts 97°
2026-04-26 07:20 57.40208 63.66023 21939 ft 408 kts 97°
2026-04-26 07:20 57.39943 63.71189 21442 ft 396 kts 97°
2026-04-26 07:20 57.39632 63.76152 20984 ft 378 kts 103°
2026-04-26 07:20 57.39028 63.80787 20544 ft 363 kts 107°
2026-04-26 07:21 57.38390 63.85290 20116 ft 361 kts 107°
2026-04-26 07:21 57.37755 63.89790 19672 ft 361 kts 107°
2026-04-26 07:21 57.37121 63.94281 19222 ft 360 kts 107°
2026-04-26 07:21 57.36496 63.98693 18771 ft 358 kts 107°
2026-04-26 07:22 57.35863 64.03153 18319 ft 357 kts 107°
2026-04-26 07:22 57.35232 64.07594 17842 ft 357 kts 107°
2026-04-26 07:22 57.34601 64.12024 17370 ft 355 kts 107°
2026-04-26 07:22 57.33972 64.16423 16923 ft 352 kts 107°
2026-04-26 07:23 57.33430 64.20213 16541 ft 350 kts 107°
2026-04-26 07:23 57.32805 64.24564 16098 ft 349 kts 107°
2026-04-26 07:23 57.32182 64.28889 15664 ft 347 kts 107°
2026-04-26 07:23 57.31558 64.33199 15233 ft 346 kts 107°
2026-04-26 07:24 57.30931 64.37493 14796 ft 345 kts 107°
2026-04-26 07:24 57.30300 64.41774 14361 ft 344 kts 107°
2026-04-26 07:24 57.29673 64.46041 13926 ft 344 kts 105°
2026-04-26 07:24 57.29310 64.50421 13485 ft 345 kts 93°
2026-04-26 07:25 57.29431 64.54837 12996 ft 345 kts 81°
2026-04-26 07:25 57.30006 64.59124 12554 ft 343 kts 72°
2026-04-26 07:25 57.30693 64.63330 12105 ft 341 kts 73°
2026-04-26 07:25 57.31365 64.67549 11651 ft 343 kts 73°
2026-04-26 07:26 57.32035 64.71787 11204 ft 343 kts 73°
2026-04-26 07:26 57.32703 64.76013 10873 ft 342 kts 73°
2026-04-26 07:26 57.33368 64.80231 10619 ft 341 kts 73°
2026-04-26 07:26 57.34032 64.84440 10361 ft 340 kts 73°
2026-04-26 07:27 57.34646 64.88344 10126 ft 339 kts 73°
2026-04-26 07:27 57.35306 64.92533 9871 ft 338 kts 73°
2026-04-26 07:27 57.35957 64.96697 9634 ft 334 kts 73°
2026-04-26 07:27 57.36588 65.00752 9490 ft 322 kts 74°
2026-04-26 07:28 57.37197 65.04671 9351 ft 311 kts 74°
2026-04-26 07:28 57.37734 65.08498 9208 ft 304 kts 80°
2026-04-26 07:28 57.37911 65.12369 9072 ft 301 kts 92°
2026-04-26 07:28 57.37748 65.16235 8927 ft 300 kts 97°
2026-04-26 07:29 57.37548 65.20077 8799 ft 300 kts 97°
2026-04-26 07:29 57.37352 65.23863 8662 ft 299 kts 97°
2026-04-26 07:29 57.37153 65.27693 8530 ft 298 kts 97°
2026-04-26 07:29 57.36953 65.31531 8100 ft 301 kts 97°
2026-04-26 07:30 57.36759 65.35250 7736 ft 299 kts 97°
2026-04-26 07:30 57.36552 65.39200 7264 ft 300 kts 97°
2026-04-26 07:30 57.36375 65.42998 6750 ft 294 kts 95°
2026-04-26 07:30 57.36260 65.46762 6073 ft 292 kts 94°
2026-04-26 07:31 57.35972 65.50429 5363 ft 286 kts 112°
2026-04-26 07:31 57.34915 65.53428 4688 ft 276 kts 142°
2026-04-26 07:31 57.33296 65.55140 3935 ft 265 kts 169°
2026-04-26 07:31 57.31529 65.55319 3444 ft 246 kts 195°
2026-04-26 07:32 57.30040 65.54303 3369 ft 214 kts 216°
2026-04-26 07:32 57.28956 65.52625 3298 ft 199 kts 230°
2026-04-26 07:32 57.28025 65.50737 3117 ft 199 kts 231°
2026-04-26 07:32 57.27099 65.48830 2869 ft 199 kts 231°
2026-04-26 07:33 57.26173 65.46934 2598 ft 198 kts 231°
2026-04-26 07:33 57.25281 65.45114 2332 ft 184 kts 231°
2026-04-26 07:33 57.24463 65.43448 2103 ft 165 kts 231°
2026-04-26 07:33 57.23727 65.41947 1890 ft 152 kts 231°
2026-04-26 07:34 57.23035 65.40536 1664 ft 143 kts 231°
2026-04-26 07:34 57.22392 65.39226 1479 ft 131 kts 232°
2026-04-26 07:34 57.21786 65.37992 1295 ft 128 kts 234°
2026-04-26 07:34 57.21183 65.36777 1085 ft 128 kts 231°
2026-04-26 07:35 57.20593 65.35566 900 ft 126 kts 230°
2026-04-26 07:35 57.20001 65.34365 697 ft 127 kts 231°
2026-04-26 07:35 57.19407 65.33154 534 ft 128 kts 231°
2026-04-26 07:35 57.18811 65.31939 408 ft 128 kts 230°
2026-04-26 07:36 57.18246 65.30787 367 ft 108 kts 230°
2026-04-26 07:36 57.17852 65.29987 378 ft 59 kts 227°
2026-04-26 07:36 57.17646 65.29573 385 ft 38 kts 229°
2026-04-26 07:36 57.17509 65.29322 386 ft 12 kts 191°
2026-04-26 07:37 57.17448 65.29403 387 ft 10 kts 139°
2026-04-26 07:37 57.17399 65.29483 387 ft 9 kts 137°
2026-04-26 07:37 57.17380 65.29575 387 ft 8 kts 71°
2026-04-26 07:37 57.17414 65.29650 386 ft 8 kts 46°
2026-04-26 07:38 57.17451 65.29726 386 ft 10 kts 48°
2026-04-26 07:38 57.17515 65.29856 384 ft 17 kts 48°
2026-04-26 07:38 57.17612 65.30055 383 ft 24 kts 48°
2026-04-26 07:38 57.17736 65.30306 380 ft 27 kts 47°
2026-04-26 07:39 57.17865 65.30564 376 ft 26 kts 47°
2026-04-26 07:39 57.17995 65.30825 372 ft 30 kts 47°
2026-04-26 07:39 57.18141 65.31118 365 ft 33 kts 47°
2026-04-26 07:39 57.18291 65.31423 364 ft 30 kts 48°
2026-04-26 07:40 57.18430 65.31707 357 ft 26 kts 47°
2026-04-26 07:40 57.18457 65.31919 344 ft 17 kts 85°
2026-04-26 07:40 57.18461 65.32162 335 ft 20 kts 88°
2026-04-26 07:40 57.18466 65.32434 328 ft 22 kts 88°
2026-04-26 07:41 57.18472 65.32708 327 ft 20 kts 88°
2026-04-26 07:41 57.18476 65.32948 332 ft 17 kts 88°
2026-04-26 07:41 57.18502 65.33143 331 ft 15 kts 54°
2026-04-26 07:41 57.18564 65.33260 337 ft 11 kts 45°
2026-04-26 07:42 57.18615 65.33363 338 ft 12 kts 60°
2026-04-26 07:42 57.18620 65.33504 340 ft 10 kts 89°
2026-04-26 07:42 57.18607 65.33622 336 ft 9 kts 132°
2026-04-26 07:42 57.18566 65.33699 340 ft 9 kts 135°
2026-04-26 07:43 57.18496 65.33825 337 ft 19 kts 135°
2026-04-26 07:43 57.18392 65.34017 337 ft 22 kts 135°
2026-04-26 07:43 57.18288 65.34209 336 ft 21 kts 135°
2026-04-26 07:43 57.18180 65.34409 337 ft 23 kts 135°
2026-04-26 07:44 57.18119 65.34522 338 ft 14 kts 135°
2026-04-26 07:44 57.18056 65.34643 337 ft 12 kts 135°
2026-04-26 07:44 57.18011 65.34729 339 ft 6 kts 124°
2026-04-26 07:44 57.18021 65.34792 338 ft 5 kts 45°
2026-04-26 07:45 57.18039 65.34825 338 ft 4 kts 44°
2026-04-26 07:45 57.18052 65.34849 340 ft 1 kts 45°
2026-04-26 07:45 57.18053 65.34851 341 ft 0 kts 45°
2026-04-26 07:50 57.18054 65.34851 341 ft 0 kts 45°